"Pseudo-MPEC" for P10N3nq

Created 2019 Apr 21 15:07:26 UT using Find_Orb

Click here for an explanation of pseudo-MPECs

 
 Astrometry: 
     P10N3nq  C2019 04 09)_j=d/L4[*'^1=Fq-$FxO,3,l^3-N=AstrometryF40':ybEZ!0wF51
     P10N3nq  C2019 04 09G'^=_^;5k)uGu3Z(aQOZe9aZl$%L%i$pbC/!^DlA@m=S'yoY(OxvF51
     P10N3nq  C2019 04 096Xh:7;ssredacted;yP[v`\5^(VXOMfWM[j/0B+F!t;li4MbhWwdF51
     P10N3nq  C2019 04 09=4yVpV4)10[!@EC%lxyaEBOr^=O6\clickGJ5#tEkt)l_9'`3M^9F51
     P10N3nq  C2019 04 10.39505 14 47 54.43 +20 42 34.5    ~4AAX 22.4 GVNEOCPI52
     P10N3nq  C2019 04 10.40273 14 47 54.16 +20 42 35.9    ~4AAX 21.2 GVNEOCPI52
     P10N3nq  C2019 04 10.41040 14 47 53.96 +20 42 37.4    ~4AAX 21.6 GVNEOCPI52
     P10N3nq  C2019 04 10.41807 14 47 53.76 +20 42 39.5    ~4AAX 20.8 GVNEOCPI52
     P10N3nq  C2019 04 14.32517 14 46 04.74 +20 57 04.2    ~4E8X 21.5 GVNEOCPV06
     P10N3nq  C2019 04 14.33405 14 46 04.46 +20 57 06.0    ~4E8X 21.5 GVNEOCPV06
     P10N3nq  C2019 04 14.33711 14 46 04.36 +20 57 06.6    ~4E8X 21.1 GVNEOCPV06
     P10N3nq  C2019 04 14.34444 14 46 04.18 +20 57 08.1    ~4E8X 21.1 GVNEOCPV06
     P10N3nq  C2019 04 14.44740 14 46 01.12 +20 57 29.2    ~4EBm       VNEOCPI52
     P10N3nq  C2019 04 14.45502 14 46 00.88 +20 57 30.6    ~4EBm       VNEOCPI52
     P10N3nq  C2019 04 14.46270 14 46 00.74 +20 57 32.1    ~4EBm       VNEOCPI52
     P10N3nq  C2019 04 14.47078 14 46 00.46 +20 57 33.5    ~4EBm       VNEOCPI52
     P10N3nq KC2019 04 15s6l4[5cSM[]cq^g,abR,6[xvNZ6b-t!Z1mnF\WT0l7Mcu;p6WBG]291
     P10N3nq KC2019 04 15uweU4hereMb(vMPDt2UNvH?Jen?5*v7CNforUA:d/AqJVyTsf0!=291
     P10N3nq KC2019 04 152@gw4`gr\XRYa.UrcvS[F/Zdexplanation-gN.*`(K7p1$hG7@x291
     P10N3nq  C2019 04 16.36013 14 45 05.48 +21 03 53.1    ~4G9I       VNEOCPV06
     P10N3nq  C2019 04 16.36582 14 45 05.39 +21 03 54.2    ~4G9I 21.2 GVNEOCPV06
     P10N3nq  C2019 04 16.36988 14 45 05.27 +21 03 55.0    ~4G9I 21.2 GVNEOCPV06
     P10N3nq  C2019 04 16.37394 14 45 05.17 +21 03 56.0    ~4G9I 21.6 GVNEOCPV06

Station data:
(291) LPL/Spacewatch II  (N31.961669 W111.599905)  US/Arizona.  Observers J.
   V. Scotti, R. S. McMillan. 1.8-m f/2.7 reflector + CCD.
(F51) Pan-STARRS 1, Haleakala  (N20.707235 W156.255910)  US/Hawaii.
   Observers N. Primak, A. Schultz, S. Watters, J. Thiel, T. Goggia. Measurer
   PS1 Science Consortium. 1.8-m Ritchey-Chrétien + CCD.
(I52) Steward Observatory, Mt. Lemmon Station  (N32.442547 W110.788920)
   US/Arizona.  Observers T. A. Pruyne, B. M. Africano, E. J. Christensen, G.
   A. Farneth, D. C. Fuls, A. R. Gibbs, A. D. Grauer, H. Groeller, J. A.
   Johnson, R. A. Kowalski, S. M. Larson, G. J. Leonard, R. L. Seaman, F. C.
   Shelly. 1.0-m reflector + CCD.
(V06) Catalina Sky Survey-Kuiper  (N32.416847 W110.732550)  US/Arizona.
   Observers T. A. Pruyne, B. M. Africano, E. J. Christensen, G. A. Farneth,
   D. C. Fuls, A. R. Gibbs, A. D. Grauer, H. Groeller, J. A. Johnson, R. A.
   Kowalski, S. M. Larson, G. J. Leonard, R. L. Seaman, F. C. Shelly. 1.55-m
   reflector + CCD.

Orbital elements:  P10N3nq
   Perihelion 2021 Apr 10.634254 +/- 676 TT = 15:13:19 (JD 2459315.134254)
Epoch 2019 Apr 16.0 TT = JDT 2458589.5   Ju: 0.0493           AutoNEOCP
M 299.34617662 +/- 56               (J2000 ecliptic)
n   0.08358732 +/- 0.000714         Peri.  157.76360 +/- 59
a   5.18054890 +/- 0.0295           Node   114.25550 +/- 0.43
e   0.0219060 +/- 0.0263            Incl.   28.75265 +/- 0.039
P  11.79                   H 14.4   G  0.15   U  8.1  
q 5.06706375 +/- 0.125    Q 5.29403405 +/- 0.154
From 23 observations 2019 Apr. 9-16; mean residual 0".31
Residuals in arcseconds: 
190409 F51  .03+  .21-    190414 V06  .00   .16+    190415 291  .32+  .45+    
190409 F51  .02+  .00     190414 V06  .26-  .10+    190415 291  .11+  .28+    
190409 F51  .09+  .18-    190414 V06  .39-  .06+    190415 291  .09+  .21+    
190409 F51  .08-  .09-    190414 V06  .11+  .04+    190416 V06  1.0-  .09-    
190410 I52  .43+  .54+    190414 I52  .24-  .17-    190416 V06  .12+  .10-    
190410 I52  .36-  .15+    190414 I52  .46-  .33-    190416 V06  .16+  .08-    
190410 I52  .17-  .14-    190414 I52  .74+  .40-    190416 V06  .47+  .13+    
190410 I52  .02+  .17+    190414 I52  .14+  .66-    

Ephemerides (geocentric):
Date (UTC) HH   RA              Dec         delta   r     elong  mag " sig PA
---- -- -- --  -------------   -----------  ------ ------ -----  --- ---- ---
2019 04 21 15  14 42 26.542   +21 19 11.11  4.2711 5.1260 144.9 21.6 1.87  25
2019 04 21 16  14 42 25.255   +21 19 17.53  4.2711 5.1260 144.9 21.6 1.89  25
2019 04 21 17  14 42 23.967   +21 19 23.93  4.2711 5.1260 144.9 21.6 1.91  25
2019 04 21 18  14 42 22.679   +21 19 30.32  4.2711 5.1260 144.9 21.6 1.93  25
2019 04 21 19  14 42 21.391   +21 19 36.69  4.2711 5.1260 144.9 21.6 1.95  25
2019 04 21 20  14 42 20.102   +21 19 43.05  4.2711 5.1260 144.9 21.6 1.97  25
2019 04 21 21  14 42 18.813   +21 19 49.40  4.2711 5.1260 144.9 21.6 1.99  25
2019 04 21 22  14 42 17.523   +21 19 55.73  4.2711 5.1260 144.9 21.6 2.01  25
2019 04 21 23  14 42 16.233   +21 20 02.05  4.2711 5.1260 144.9 21.6 2.03  25
2019 04 22 00  14 42 14.943   +21 20 08.36  4.2711 5.1260 144.9 21.6 2.04  25
2019 04 22 01  14 42 13.652   +21 20 14.65  4.2710 5.1260 144.9 21.6 2.06  25
2019 04 22 02  14 42 12.361   +21 20 20.93  4.2710 5.1260 144.9 21.6 2.08  25
2019 04 22 03  14 42 11.070   +21 20 27.20  4.2710 5.1260 144.9 21.6 2.10  25
2019 04 22 04  14 42 09.778   +21 20 33.45  4.2710 5.1259 144.9 21.6 2.12  25
2019 04 22 05  14 42 08.486   +21 20 39.69  4.2710 5.1259 144.9 21.6 2.14  25
2019 04 22 06  14 42 07.193   +21 20 45.91  4.2710 5.1259 144.9 21.6 2.16  25
2019 04 22 07  14 42 05.900   +21 20 52.12  4.2710 5.1259 144.9 21.6 2.19  25
2019 04 22 08  14 42 04.607   +21 20 58.32  4.2710 5.1259 144.9 21.6 2.21  25
2019 04 22 09  14 42 03.313   +21 21 04.50  4.2710 5.1259 144.9 21.6 2.23  25
2019 04 22 10  14 42 02.019   +21 21 10.67  4.2710 5.1259 144.9 21.6 2.25  25
2019 04 22 11  14 42 00.725   +21 21 16.83  4.2710 5.1259 144.9 21.6 2.27  25
2019 04 22 12  14 41 59.430   +21 21 22.97  4.2710 5.1259 144.9 21.6 2.29  25
2019 04 22 13  14 41 58.135   +21 21 29.09  4.2710 5.1259 144.9 21.6 2.31  25
2019 04 22 14  14 41 56.840   +21 21 35.21  4.2710 5.1259 144.9 21.6 2.33  25
2019 04 22 15  14 41 55.544   +21 21 41.31  4.2710 5.1259 144.9 21.6 2.35  25
2019 04 22 16  14 41 54.248   +21 21 47.39  4.2710 5.1259 144.9 21.6 2.37  25
2019 04 22 17  14 41 52.951   +21 21 53.47  4.2710 5.1259 144.9 21.6 2.39  25
2019 04 22 18  14 41 51.654   +21 21 59.52  4.2710 5.1259 144.9 21.6 2.41  24
2019 04 22 19  14 41 50.357   +21 22 05.57  4.2710 5.1259 144.9 21.6 2.44  24
2019 04 22 20  14 41 49.060   +21 22 11.60  4.2710 5.1258 144.9 21.6 2.46  24
2019 04 22 21  14 41 47.762   +21 22 17.62  4.2710 5.1258 144.9 21.6 2.48  24
2019 04 22 22  14 41 46.464   +21 22 23.62  4.2710 5.1258 144.9 21.6 2.50  24
2019 04 22 23  14 41 45.165   +21 22 29.61  4.2710 5.1258 144.9 21.6 2.52  24
2019 04 23 00  14 41 43.866   +21 22 35.58  4.2710 5.1258 144.9 21.6 2.54  24
2019 04 23 01  14 41 42.567   +21 22 41.54  4.2710 5.1258 144.9 21.6 2.57  24
2019 04 23 02  14 41 41.267   +21 22 47.49  4.2710 5.1258 144.9 21.6 2.59  24
2019 04 23 03  14 41 39.967   +21 22 53.42  4.2710 5.1258 144.9 21.6 2.61  24
2019 04 23 04  14 41 38.667   +21 22 59.34  4.2710 5.1258 144.8 21.6 2.63  24
2019 04 23 05  14 41 37.367   +21 23 05.25  4.2710 5.1258 144.8 21.6 2.65  24
2019 04 23 06  14 41 36.066   +21 23 11.14  4.2711 5.1258 144.8 21.6 2.68  24
2019 04 23 07  14 41 34.765   +21 23 17.02  4.2711 5.1258 144.8 21.6 2.70  24
2019 04 23 08  14 41 33.463   +21 23 22.88  4.2711 5.1258 144.8 21.6 2.72  24
2019 04 23 09  14 41 32.161   +21 23 28.73  4.2711 5.1258 144.8 21.6 2.74  24
2019 04 23 10  14 41 30.859   +21 23 34.57  4.2711 5.1258 144.8 21.6 2.77  24
2019 04 23 11  14 41 29.556   +21 23 40.39  4.2711 5.1258 144.8 21.6 2.79  24
2019 04 23 12  14 41 28.254   +21 23 46.20  4.2711 5.1258 144.8 21.6 2.81  24
2019 04 23 13  14 41 26.950   +21 23 51.99  4.2711 5.1257 144.8 21.6 2.83  24
2019 04 23 14  14 41 25.647   +21 23 57.77  4.2711 5.1257 144.8 21.6 2.86  24